Location: Diebersbach
(48.5163°N, 8.0558°E)
Time: 22:07:44
(UTC+00:00)

USA 229 - Pass Details

Date: 25 October 2021
Orbit: 946 x 1266 km, 63.4° (Epoch: 25 November)

Event Time Altitude Azimuth Distance (km) Brightness Sun altitude
Rises 18:30:33 0° 224° (SW) 3,642 7.0 -22.2°
Reaches altitude 10° 18:33:02 10° 225° (SW) 2,723 6.3 -22.6°
Maximum altitude 18:39:26 79° 313° (NW) 1,045 3.6 -23.7°
Enters shadow 18:43:57 23° 38° (NE) 2,090 4.9 -24.4°
